When you browse on this site, cookies collect data to enhance your experience and personalize the content and advertising you see.
Visit our Privacy Policy to learn more. By continuing to use the site, you agree to this use of cookies and data.

Hourly Weather Gluhov

Today, 14 July, Tuesday

Time Temperature Precipitation Wind Pressure Humidity
00:00 +14°C° 0 mm 6 mps 742 mmHg 85%
01:00 +14°C° 0 mm 6 mps 742 mmHg 86%
02:00 +14°C° 0 mm 4 mps 743 mmHg 81%
03:00 +13°C° 0 mm 5 mps 742 mmHg 83%
04:00 +13°C° 0 mm 5 mps 742 mmHg 84%
05:00 +13°C° 0 mm 5 mps 741 mmHg 86%
06:00 +13°C° 0.4 mm 5 mps 741 mmHg 88%
07:00 +13°C° 0.4 mm 5 mps 741 mmHg 91%
08:00 +13°C° 0.4 mm 5 mps 741 mmHg 93%
09:00 +13°C° 0.7 mm 5 mps 741 mmHg 94%
10:00 +14°C° 0.7 mm 5 mps 741 mmHg 95%
11:00 +14°C° 0.7 mm 6 mps 741 mmHg 95%
12:00 +14°C° 0.3 mm 6 mps 741 mmHg 95%
13:00 +14°C° 0.3 mm 6 mps 741 mmHg 95%
14:00 +14°C° 0.3 mm 6 mps 741 mmHg 95%
15:00 +14°C° 0.2 mm 6 mps 741 mmHg 94%
16:00 +14°C° 0.2 mm 6 mps 740 mmHg 94%
17:00 +14°C° 0.2 mm 6 mps 740 mmHg 94%
18:00 +14°C° 0.7 mm 6 mps 740 mmHg 94%
19:00 +14°C° 0.7 mm 6 mps 740 mmHg 95%
20:00 +14°C° 0.7 mm 5 mps 740 mmHg 95%
21:00 +14°C° 0.8 mm 6 mps 740 mmHg 95%
22:00 +14°C° 0.8 mm 6 mps 740 mmHg 95%
23:00 +14°C° 0.8 mm 6 mps 740 mmHg 94%

Tomorrow, 15 July, Wednesday

Time Temperature Precipitation Wind Pressure Humidity
00:00 +13°C° 0.7 mm 6 mps 740 mmHg 94%
01:00 +13°C° 0.7 mm 6 mps 740 mmHg 94%
02:00 +13°C° 0.7 mm 6 mps 740 mmHg 94%
03:00 +13°C° 0.1 mm 6 mps 740 mmHg 94%
04:00 +11°C° 0.1 mm 6 mps 740 mmHg 93%
05:00 +11°C° 0.1 mm 6 mps 740 mmHg 93%
06:00 +11°C° 0.1 mm 6 mps 741 mmHg 91%
07:00 +13°C° 0.1 mm 6 mps 741 mmHg 89%
08:00 +13°C° 0.1 mm 6 mps 741 mmHg 87%
09:00 +14°C° 0.2 mm 6 mps 741 mmHg 84%
10:00 +14°C° 0.2 mm 6 mps 742 mmHg 82%
11:00 +15°C° 0.2 mm 6 mps 742 mmHg 80%
12:00 +15°C° 0.1 mm 6 mps 742 mmHg 80%
13:00 +14°C° 0.1 mm 5 mps 743 mmHg 80%
14:00 +14°C° 0.1 mm 5 mps 743 mmHg 81%
15:00 +14°C° 0 mm 5 mps 743 mmHg 79%
16:00 +14°C° 0 mm 5 mps 743 mmHg 77%
17:00 +15°C° 0 mm 6 mps 743 mmHg 75%
18:00 +14°C° 0 mm 5 mps 744 mmHg 77%
19:00 +13°C° 0 mm 5 mps 744 mmHg 79%
20:00 +11°C° 0 mm 4 mps 744 mmHg 82%
21:00 +11°C° 0 mm 4 mps 744 mmHg 81%
22:00 +11°C° 0 mm 4 mps 745 mmHg 80%
23:00 +11°C° 0 mm 4 mps 745 mmHg 78%

Day after tomorrow, 16 July, Thursday

Time Temperature Precipitation Wind Pressure Humidity
00:00 +11°C° 0 mm 4 mps 745 mmHg 78%
01:00 +11°C° 0 mm 4 mps 745 mmHg 77%
02:00 +12°C° 0 mm 4 mps 745 mmHg 77%
03:00 +11°C° 0 mm 4 mps 745 mmHg 80%
04:00 +11°C° 0 mm 4 mps 745 mmHg 83%
05:00 +11°C° 0 mm 4 mps 745 mmHg 86%
06:00 +12°C° 0 mm 4 mps 745 mmHg 83%
07:00 +14°C° 0 mm 4 mps 745 mmHg 79%
08:00 +16°C° 0 mm 5 mps 745 mmHg 76%
09:00 +18°C° 0 mm 4 mps 745 mmHg 72%
10:00 +20°C° 0 mm 4 mps 745 mmHg 67%
11:00 +21°C° 0 mm 4 mps 745 mmHg 63%
12:00 +21°C° 0 mm 4 mps 745 mmHg 62%
13:00 +22°C° 0 mm 4 mps 745 mmHg 61%
14:00 +22°C° 0 mm 4 mps 745 mmHg 61%
15:00 +22°C° 0 mm 4 mps 745 mmHg 63%
16:00 +22°C° 0 mm 3 mps 745 mmHg 65%
17:00 +22°C° 0 mm 3 mps 745 mmHg 68%
18:00 +20°C° 0 mm 2 mps 745 mmHg 73%
19:00 +18°C° 0 mm 2 mps 745 mmHg 78%
20:00 +18°C° 0 mm 1 mps 745 mmHg 83%
21:00 +16°C° 0 mm 1 mps 745 mmHg 84%
22:00 +15°C° 0 mm 1 mps 745 mmHg 85%
23:00 +15°C° 0 mm 1 mps 745 mmHg 86%

17 July, Friday

Time Temperature Precipitation Wind Pressure Humidity
00:00 +14°C° 0 mm 1 mps 745 mmHg 86%
01:00 +14°C° 0 mm 1 mps 745 mmHg 86%
02:00 +14°C° 0 mm 1 mps 745 mmHg 86%
03:00 +14°C° 0 mm 1 mps 745 mmHg 85%
04:00 +14°C° 0 mm 1 mps 745 mmHg 85%
05:00 +14°C° 0 mm 1 mps 745 mmHg 84%
06:00 +16°C° 0 mm 1 mps 745 mmHg 79%
07:00 +19°C° 0 mm 1 mps 746 mmHg 74%
08:00 +21°C° 0 mm 1 mps 746 mmHg 69%
09:00 +22°C° 0 mm 1 mps 746 mmHg 66%
10:00 +23°C° 0 mm 1 mps 746 mmHg 63%
11:00 +24°C° 0 mm 1 mps 746 mmHg 59%
12:00 +25°C° 0 mm 1 mps 746 mmHg 57%
13:00 +25°C° 0 mm 1 mps 746 mmHg 56%
14:00 +26°C° 0 mm 1 mps 746 mmHg 54%
15:00 +26°C° 0.3 mm 1 mps 746 mmHg 59%
16:00 +25°C° 0.3 mm 2 mps 746 mmHg 63%
17:00 +25°C° 0.3 mm 2 mps 746 mmHg 68%
18:00 +23°C° 0.2 mm 1 mps 746 mmHg 73%
19:00 +21°C° 0.2 mm 1 mps 746 mmHg 78%
20:00 +20°C° 0.2 mm 1 mps 746 mmHg 83%
21:00 +19°C° 0 mm 1 mps 747 mmHg 84%
22:00 +19°C° 0 mm 1 mps 747 mmHg 84%
23:00 +18°C° 0 mm 1 mps 747 mmHg 85%

18 July, Saturday

Time Temperature Precipitation Wind Pressure Humidity
00:00 +18°C° 0 mm 1 mps 747 mmHg 86%
01:00 +18°C° 0 mm 1 mps 747 mmHg 87%
02:00 +16°C° 0 mm 1 mps 747 mmHg 88%
03:00 +16°C° 0 mm 1 mps 747 mmHg 87%
04:00 +16°C° 0 mm 0 mps 747 mmHg 87%
05:00 +16°C° 0 mm 0 mps 747 mmHg 87%
06:00 +18°C° 0 mm 0 mps 748 mmHg 82%
07:00 +19°C° 0 mm 0 mps 748 mmHg 78%
08:00 +23°C° 0 mm 1 mps 748 mmHg 73%
09:00 +24°C° 0.2 mm 1 mps 748 mmHg 69%
10:00 +25°C° 0.2 mm 1 mps 748 mmHg 65%
11:00 +26°C° 0.2 mm 1 mps 748 mmHg 61%
12:00 +27°C° 0.2 mm 1 mps 748 mmHg 60%
13:00 +27°C° 0.2 mm 1 mps 748 mmHg 58%
14:00 +27°C° 0.2 mm 1 mps 748 mmHg 56%
15:00 +27°C° 0.3 mm 1 mps 748 mmHg 59%
16:00 +27°C° 0.3 mm 1 mps 748 mmHg 62%
17:00 +26°C° 0.3 mm 1 mps 748 mmHg 65%
18:00 +25°C° 0.3 mm 1 mps 748 mmHg 71%
19:00 +23°C° 0.3 mm 1 mps 748 mmHg 77%
20:00 +21°C° 0.3 mm 1 mps 748 mmHg 83%
21:00 +20°C° 0.2 mm 1 mps 748 mmHg 85%
22:00 +20°C° 0.2 mm 1 mps 748 mmHg 86%
23:00 +19°C° 0.2 mm 1 mps 749 mmHg 87%

19 July, Sunday

Time Temperature Precipitation Wind Pressure Humidity
00:00 +19°C° 0 mm 1 mps 749 mmHg 88%
01:00 +19°C° 0 mm 1 mps 748 mmHg 89%
02:00 +18°C° 0 mm 1 mps 748 mmHg 89%
03:00 +18°C° 0 mm 1 mps 748 mmHg 90%
04:00 +18°C° 0 mm 1 mps 748 mmHg 91%
05:00 +18°C° 0 mm 1 mps 748 mmHg 92%
06:00 +19°C° 0 mm 2 mps 748 mmHg 88%
07:00 +20°C° 0 mm 2 mps 748 mmHg 84%
08:00 +23°C° 0 mm 2 mps 748 mmHg 81%
09:00 +24°C° 0.7 mm 2 mps 748 mmHg 77%
10:00 +25°C° 0.7 mm 3 mps 748 mmHg 74%
11:00 +26°C° 0.7 mm 3 mps 748 mmHg 70%
12:00 +26°C° 0.9 mm 3 mps 748 mmHg 71%
13:00 +26°C° 0.9 mm 3 mps 747 mmHg 71%
14:00 +26°C° 0.9 mm 4 mps 747 mmHg 72%
15:00 +25°C° 0.6 mm 4 mps 747 mmHg 73%
16:00 +25°C° 0.6 mm 4 mps 747 mmHg 75%
17:00 +25°C° 0.6 mm 4 mps 746 mmHg 76%
18:00 +22°C° 0.2 mm 4 mps 746 mmHg 78%
19:00 +20°C° 0.2 mm 3 mps 746 mmHg 81%
20:00 +19°C° 0.2 mm 3 mps 746 mmHg 83%
21:00 +18°C° 0 mm 3 mps 746 mmHg 84%
22:00 +17°C° 0 mm 3 mps 746 mmHg 85%
23:00 +16°C° 0 mm 3 mps 745 mmHg 86%
Show more